Hourly Data Report for October 17, 2014

All times are specified in Local Standard Time (LST). Add 1 hour to adjust for Daylight Saving Time where and when it is observed.

OTTAWA INTL A
ONTARIO

45°19'00.000" N
75°40'00.000" W
114.90 m
6106001
71628
YOW

Download Data

Hourly Data (October 2014)
Hourly Data Report for October 17, 2014
Temp Definition
°C
Dew Point Temp Definition
°C
Rel Hum Definition
%
Wind Dir Definition
10's deg

Wind Spd Definition
km/h
Visibility Definition
km
Stn Press Definition
kPa
Hmdx Definition


Wind Chill Definition


Weather Definition


TIME
00:00 Legend Double Dagger 13.0 12.4 96 18 8 11.3 98.76     LegendNANA
01:00 Legend Double Dagger 12.7 12.4 98 19 10 8.1 98.73     Fog
02:00 Legend Double Dagger 13.7 12.9 95 20 13 9.7 98.66     Fog
03:00 Legend Double Dagger 13.7 12.9 95 18 15 12.9 98.67     LegendNANA
04:00 Legend Double Dagger 13.8 13.0 95 18 10 12.9 98.66     Cloudy
05:00 Legend Double Dagger 13.1 12.2 94 19 11 16.1 98.63     LegendNANA
06:00 Legend Double Dagger 12.7 11.8 94 20 10 16.1 98.62     LegendNANA
07:00 Legend Double Dagger 13.0 11.7 92 21 14 16.1 98.63     Cloudy
08:00 Legend Double Dagger 13.6 11.8 89 21 19 24.1 98.66     LegendNANA
09:00 Legend Double Dagger 13.7 11.1 84 22 17 24.1 98.70     LegendNANA
10:00 Legend Double Dagger 14.6 11.2 80 20 18 24.1 98.63     Mostly Cloudy
11:00 Legend Double Dagger 16.8 11.2 69 21 30 24.1 98.61     LegendNANA
12:00 Legend Double Dagger 16.3 11.7 74 23 26 24.1 98.53     LegendNANA
13:00 Legend Double Dagger 14.7 11.9 83 21 13 12.9 98.47     Rain
14:00 Legend Double Dagger 13.7 12.6 93 20 22 12.9 98.44     Rain
15:00 Legend Double Dagger 14.6 12.7 88 21 19 16.1 98.43     LegendNANA
16:00 Legend Double Dagger 14.6 12.3 86 20 16 24.1 98.45     Cloudy
17:00 Legend Double Dagger 14.4 11.4 82 20 14 24.1 98.49     LegendNANA
18:00 Legend Double Dagger 14.2 10.7 79 21 15 24.1 98.52     LegendNANA
19:00 Legend Double Dagger 14.3 11.3 82 20 13 24.1 98.52     Cloudy
20:00 Legend Double Dagger 14.2 11.6 84 20 19 24.1 98.52     LegendNANA
21:00 Legend Double Dagger 13.8 11.5 86 19 14 24.1 98.49     LegendNANA
22:00 Legend Double Dagger 13.6 11.3 86 19 14 24.1 98.47     Cloudy
23:00 Legend Double Dagger 13.9 11.5 85 19 13 24.1 98.45     LegendNANA

Notes on Data Quality.

Legend

  • E = Estimated
  • M = Missing
  • NA = Not Available
  • ‡ = Partner data that is not subject to review by the National Climate Archives
Date modified: